Flag for Germany Weather past 2 weeks in Koblenz, Rhineland-Palatinate, Germany

Now
79 °F

Warm.


Feels Like: 80 °F
Forecast: 67 / 90 °F
Wind: 9 mph from Southwest

Location: Buechel

Current Time: Aug 29, 2015 at 5:21:42 PM

Latest Report: Aug 29, 2015 at 4:20 PM


Visibility: N/A

Pressure: 30.18 "Hg

Humidity: 58%

Dew point: 63 °F

Location of KoblenzLocation

Historic Weather in Koblenz — Graph

°F

Koblenz temperature yesterday

Maximum temperature yesterday: 64 °F (at 5:20 PM)
Minimum temperature yesterday: 54 °F (at 3:20 AM)
Average temperature yesterday: 57 °F

Past Weeks' High & Low Weather Summary

 TemperatureHumidityPressure
High77 °F (Aug 29, 3:20 PM)100% (Aug 15, 5:20 AM)30.30 "Hg (Aug 15, 5:20 AM)
Low48 °F (Aug 19, 5:20 AM)29% (Aug 22, 6:20 PM)29.65 "Hg (Aug 24, 12:20 PM)
Average60 °F76%29.99 "Hg
* Reported Aug 14 3:20 PM — Aug 29 3:20 PM, Koblenz, Weather by CustomWeather, © 2015

Note: Actual official high and low records may vary slightly from our data, if they occured in-between our weather recording intervals... More about our weather records

Advertising

Koblenz weather history for previous 24 hours

 ConditionsComfort  
Time TempWeatherWind HumidityBarometerVisibility
3:20 PM
Sat, Aug 29
77 °FWarm.7 mph61%30.18 "HgN/A
2:20 PM75 °FMild.7 mph65%30.21 "HgN/A
1:20 PM73 °FMild.8 mph65%30.21 "HgN/A
11:20 AM66 °FMild.3 mph78%30.21 "HgN/A
10:20 AM63 °FMild.3 mph88%30.21 "HgN/A
9:20 AM61 °FCool.7 mph88%30.21 "HgN/A
7:20 AM57 °FCool.7 mph100%30.21 "Hg5 mi
6:20 AM57 °FCool.6 mph100%30.21 "Hg4 mi
5:20 AM57 °FCool.6 mph100%30.21 "Hg5 mi
4:20 AM55 °FCool.6 mph100%30.21 "Hg4 mi
3:20 AM55 °FCool.6 mph94%30.21 "Hg5 mi
2:20 AM55 °FCool.5 mph94%30.21 "Hg6 mi
1:20 AM55 °FCool.6 mph94%30.21 "Hg5 mi
12:20 AM55 °FCool.6 mph94%30.21 "Hg6 mi
11:20 PM
Fri, Aug 28
57 °FCool.6 mph88%30.21 "Hg4 mi
10:20 PM59 °FCool.6 mph94%30.18 "Hg4 mi
9:20 PM61 °FCool.3 mph88%30.18 "Hg4 mi
8:20 PM61 °FCool.3 mph83%30.15 "HgN/A
7:20 PM64 °FMild.5 mph78%30.15 "HgN/A
6:20 PM64 °FMild.6 mph73%30.12 "HgN/A
5:20 PM64 °FMild.5 mph78%30.12 "HgN/A
Weather by CustomWeather, © 2015

See weather overviewHow to use our weather pages